Regional Weather Roundup
Issued by NWS

Home | Current Version | Previous Version | Graphics & Text | Print | Product List | Glossary Off
Versions: 1 2 3 4 5 6 7 8 9 10 11 12 13 14 15 16 17 18 19 20 21 22 23 24 25 26 27 28 29 30 31 32 33 34 35 36 37 38 39 40 41 42 43 44 45 46 47 48 49 50

000
ASUS43 KMKX 280200
RWRWI

WISCONSIN REGIONAL WEATHER ROUNDUP
NATIONAL WEATHER SERVICE MILWAUKEE/SULLIVAN WI
900 PM CDT THU AUG 27 2015

NOTE: "FAIR" INDICATES FEW OR NO CLOUDS BELOW 12,000 FEET WITH NO
SIGNIFICANT WEATHER AND/OR OBSTRUCTIONS TO VISIBILITY.

WIZ001-002-006>008-014>016-023>028-280300-
NORTHWEST WISCONSIN

CITY           SKY/WX    TMP DP  RH WIND       PRES   REMARKS
SUPERIOR ARPT  MOCLDY    55  51  85 NE3       30.00S
ASHLAND        MOCLDY    58  58 100 CALM      30.02S
HAYWARD        MOCLDY    65  58  78 S5        30.04S
SIREN          CLOUDY    66  59  77 S6        30.02R
CUMBERLAND     CLOUDY    63  59  88 S6        30.05R
RICE LAKE      CLOUDY    65  59  79 SE6       30.06R
CHETEK         CLOUDY   N/A N/A N/A MISG      30.05R
LADYSMITH      PTCLDY    65  59  80 S3        30.08R
EAU CLAIRE     CLOUDY    67  58  72 S5        30.05R
MENOMONIE      MOCLDY    65  60  84 E6        30.04F
NEW RICHMOND   MOCLDY    66  59  77 S7        30.03S
OSCEOLA        CLOUDY    67  60  79 S5        30.04S
$$

WIZ003>005-009-010-017-018-280300-
NORTH CENTRAL WISCONSIN

CITY           SKY/WX    TMP DP  RH WIND       PRES   REMARKS
MANITOWISH WTR PTCLDY    61  58  89 S5        30.08R
ARBOR VITAE    PTCLDY    63  56  79 CALM      30.08R
WOODRUFF       PTCLDY    63  56  79 CALM      30.08R
RHINELANDER    CLOUDY    64  57  78 CALM      30.10R
EAGLE RIVER    PTCLDY    62  53  71 CALM      30.08R
LAND O LAKES   MOCLDY    62  55  76 CALM      30.09R
PHILLIPS       CLOUDY    64  59  84 S3        30.06S
TOMAHAWK       MOCLDY    60  57  91 CALM      30.09S
MEDFORD        PTCLDY    60  58  95 S3        30.08S
MERRILL        CLOUDY    65  58  77 S3        30.09F
$$

WIZ029-030-035-036-043>047-280300-
CENTRAL WISCONSIN

CITY           SKY/WX    TMP DP  RH WIND       PRES   REMARKS
WAUSAU         CLOUDY    67  58  72 S5        30.07S
MOSINEE        PTCLDY    64  59  82 S3        30.10S
MARSHFIELD     MOCLDY    64  57  78 S3        30.09S
STEVENS POINT  MOCLDY    62  57  86 CALM      30.10R
WAUPACA        MOCLDY    66  57  74 CALM      30.10R
WAUTOMA        NOT AVBL
WISC RAPIDS    MOCLDY    64  56  75 CALM      30.10S
CAMP DOUGLAS   NOT AVBL
$$

WIZ011>013-019>022-031-037>040-048>050-280300-
NORTHEAST WISCONSIN

CITY           SKY/WX    TMP DP  RH WIND       PRES   REMARKS
ANTIGO         MOCLDY    61  56  84 S3        30.10S
SHAWANO        PTCLDY    66  58  75 S3        30.09S
OCONTO         CLEAR     63  63 100 S6        30.09S
STURGEON BAY   CLEAR     59  52  77 S8        30.13S
GREEN BAY      CLEAR     61  57  87 S7        30.10S
MANITOWOC      NOT AVBL
APPLETON       MOCLDY    64  54  68 S5        30.09S
CLINTONVILLE   PTCLDY    63  55  77 S3        30.09S
OSHKOSH        PTCLDY    61  55  81 S5        30.10S
$$

WIZ032>034-041-042-053>061-280300-
SOUTHWEST WISCONSIN

CITY           SKY/WX    TMP DP  RH WIND       PRES   REMARKS
LA CROSSE      PTCLDY    70  61  73 S7        30.07R
SPARTA         MOCLDY    64  57  78 CALM      30.08R
VIROQUA        PTCLDY    64  59  84 S3        30.10R
BOSCOBEL       MOCLDY    66  59  78 NW3       30.09R
PRAIRIE DU CHI MOCLDY    68  57  66 CALM      30.08R
PLATTEVILLE    CLOUDY    64  61  90 SE6       30.11S
$$

WIZ056-057-062-063-064-067-068-280300-
SOUTH CENTRAL WISCONSIN

CITY           SKY/WX    TMP DP  RH WIND       PRES   REMARKS
REEDSBURG      MOCLDY    65  59  79 S5        30.09F
BARABOO/DELLS  MOCLDY    64  57  78 S5        30.10F
LONE ROCK      NOT AVBL
MINERAL POINT  PTCLDY    64  59  82 SE3       30.11F
MADISON        MOCLDY    67  57  70 S7        30.11S
MIDDLETON      PTCLDY    67  57  70 CALM      30.12S
WATERTOWN      MOCLDY    64  58  80 CALM      30.12R
MONROE         PTCLDY    64  59  82 S5        30.12S
JANESVILLE     CLEAR     64  57  77 CALM      30.12R
$$

WIZ051-052-058>065-066-070>072-280300-
SOUTHEAST WISCONSIN

CITY           SKY/WX    TMP DP  RH WIND       PRES   REMARKS
MILWAUKEE      CLOUDY    63  55  75 S6        30.14R
WAUKESHA       CLEAR     63  52  67 SE5       30.15R
MILWAUKEE/TIMM CLEAR     63  50  63 S5        30.14S
RACINE         MOCLDY    62  54  74 S5        30.15S
BURLINGTON     PTCLDY    57  52  84 CALM      30.14R
KENOSHA        PTCLDY    62  55  77 SE6       30.14S
FOND DU LAC    PTCLDY    62  57  83 S7        30.12R
SHEBOYGAN      CLEAR     58  53  84 S3        30.13S
WEST BEND      PTCLDY    61  52  72 CALM      30.14R
JUNEAU         MOCLDY    65  57  74 S7        30.13R
$$

LSZ147-162-280300-
LAKE SUPERIOR

STATION/POSITION TIME  TEMP    WIND        PRES    WAVE
                       AIR SEA DIR/SP/G            HT/PER
                 (UTC) (F)     (DEG/KT/KT) (MB)    (FT/S)
W MID LAKE BUOY  0050   58 57  110/  6/  6 1016.6S   0
DEVILS ISLAND    0100   63     140/  9/ 10 1016.2F
PORT WING        0140   57      30/  5/  6 1016.3S
SAXON HARBOR     0100   63      CALM  /  1 1015.9
$$

LMZ867-665-643>646-280300-
LAKE MICHIGAN

STATION/POSITION TIME  TEMP    WIND        PRES    WAVE
                       AIR SEA DIR/SP/G            HT/PER
                 (UTC) (F)     (DEG/KT/KT) (MB)    (FT/S)
CHAMBERS ISLAND  0100   64     140/  4/ 10 1019.3R
S GREEN BAY BUOY 0100   66     170/ 10/ 12 1020.3R
N MID LAKE BUOY  0050   63 64  210/ 16/ 17 1019.1F   2/ 4
NORTHPORT PIER   0100   61     160/  6/ 13 1019.3R
SISTER BAY       0104   61     180/ 12/ 15   N/A
ALGOMA LAKESHORE 0114          200/ 10/ 11   N/A
KEWAUNEE LAKESHO 0100   53     180/  9/ 10 1018.8R
SHEBOYGAN LAKESH 0100   61     200/ 13/ 15 1020.8R
PORT WASHINGTON  0100   55     200/  3/  7 1021.0R
ATWATER BUOY     0100   54 47  160/  8/  8 1021.6R
MILWAUKEE LAKESH 0100   59     180/  3/  5   N/A
S MID LAKE BUOY  0050   66 69  160/  6/  6 1020.3F   0
KENOSHA   LAKESH 0100   64     180/  8/  9 1020.3R
$$

TC  - TEMPERATURE IN CELSIUS
VSB - VISIBILITY IN STATUTE MILES
WCI - WIND CHILL INDEX
HX  - HEAT INDEX




USA.gov is the U.S. government's official web portal to all federal, state and local government web resources and services.